SPACEBEE-140 (52399 NORAD) Tracking and Keplerian Element Data

This shows tracking and keplerian element data for the satellite.

Feedback or suggestion? Click here.




ElementValue
Catalog52399
NameSPACEBEE-140
Epoch Orbit807
Epoch Day166.49236415
Epoch Year2022
RAAN251.4416
Inclination97.4506
Eccentricity0.0009817
Argument of Perigee171.3653
Mean Anonmoly188.7749
Mean Motion15.13568041
Decay Rate0.00010573
L11 52399U 22047F 22166.49236415 .00010573 00000+0 59201-3 0 9999
L22 52399 97.4506 251.4416 0009817 171.3653 188.7749 15.13568041 8078

Live tracking and technical data element details for SPACEBEE-140 (NORAD 52399). SPACEBEE-140 can be tracked NOW for your location showing map with azimuth and elevation plus other details from your city location.

Track the satellite on the map from your city or location and see movement details for azimuth, elevation, latitude, longitude, range, height, and movement on the map or in text.







IsCatalogInMostPopularTable: catalog: 52399, numindb: 1
Update: records affected: 1



GetName: 52399 SPACEBEE-140

Hit Count: updated at: Mon, 27 Jun 2022 04:54:29 GMT